SCP
0 0 0 0 0 0 0 0 0 0 0 0 0 0 0 0 0 0 0 0 0 0 0 0 0 0 0 0 0 0 0 0 0 0 0 0 0 0 0 0 0 -0 -0
0 0 0 0 0 0 0 0 0 0 0 0 0 0 0 0 0 0 0 0 0 0 0 0 0 0 0 0 0 0 0 0 0 0 0 0 0 0 0 0 -0 -0 -0
0 0 0 0 0 0 0 0 0 0 0 0 0 0 0 0 0 0 0 0 0 0 0 0 0 0 0 0 0 0 0 0 0 0 0 0 0 0 0 -0 -0 -0 -0
0 0 0 0 0 0 0 0 0 0 0 0 0 0 0 0 0 0 0 0 0 0 0 0 0 0 0 0 0 0 0 0 0 0 0 0 0 0 -0 -0 -0 -0 -0
0 0 0 0 0 0 0 0 0 0 0 0 0 0 0 0 0 0 0 0 0 0 0 0 0 0 0 0 0 0 0 0 0 0 0 0 0 0 -0 -0 -0 -0 -0
0 0 0 0 0 0 0 0 0 0 0 0 0 0 0 0 0 0 0 0 0 0 0 0 0 0 0 0 0 0 0 0 0 0 0 0 0 0 0 -0 0 -0 -0
0 0 0 0 0 0 0 0 0 0 0 0 0 0 0 0 0 0 0 0 0 0 0 0 0 0 0 0 0 0 0 0 0 0 0 0 0 0 0 0 0 0 0
0 0 0 0 0 0 0 0 0 0 0 0 0 0 0 0 0 0 0 0 0 0 0 0 0 0 0 0 0 0 0 0 0 0 0 0 0 0 0 0 0 0 0
0 0 0 0 0 0 0 0 0 0 0 0 0 0 0 0 0 0 0 0 0 0 0 0 0 0 0 0 0 0 0 0 0 0 0 0 0 0 0 0 0 0 0
0 0 0 0 0 0 0 0 0 0 0 0 0 0 0 0 0 0 0 0 0 0 0 0 0 0 0 0 0 0 0 0 0 0 0 0 0 0 0 0 0 0 0
0 0 0 0 0 0 0 0 0 0 0 0 0 0 0 0 0 0 0 0 0 0 0 0 0 0 0 0 0 0 0 0 0 0 0 0 0 0 0 0 0 0 0
0 0 0 0 0 0 0 0 0 0 0 0 0 0 0 0 0 0 0 0 0 0 0 0 0 0 0 0 0 0 0 0 0 0 0 0 0 0 0 0 0 0 0
0 0 0 0 0 0 0 0 0 0 0 0 0 0 0 0 0 0 0 0 0 0 0 0 0 0 0 0 0 0 0 0 0 0 0 0 0 0 0 0 0 0 0
0 0 0 0 0 0 0 0 0 0 0 0 0 0 0 0 0 0 0 0 0 0 0 0 0 0 0 0 0 0 0 0 0 0 0 0 0 0 0 0 0 0 0
0 0 0 0 0 0 0 0 0 0 0 0 0 0 0 0 0 0 0 0 0 0 0 0 0 0 0 0 0 0 0 0 0 0 0 0 0 0 0 0 0 0 0
0 0 0 0 0 0 0 0 0 0 0 0 0 0 0 0 0 0 0 0 0 0 0 0 0 0 0 0 0 0 0 0 0 0 0 0 0 0 0 0 0 0 0
0 0 0 0 0 0 0 0 0 0 0 0 0 0 0 0 0 0 0 0 0 0 0 0 0 0 0 0 0 0 0 0 0 0 0 0 0 0 0 0 0 0 0
0 0 0 0 0 0 0 0 0 0 0 0 0 0 0 0 0 0 0 0 0 0 0 0 0 0 0 0 0 0 0 0 0 0 0 0 0 0 0 0 0 0 0
0 0 0 0 0 0 0 0 0 0 0 0 0 0 0 0 0 0 0 0 0 0 0 0 0 0 0 0 0 0 0 0 0 0 0 0 0 0 0 0 0 0 0
0 0 0 0 0 0 0 0 0 0 0 0 0 0 0 0 0 0 0 0 0 0 0 0 0 0 0 0 0 0 0 0 0 0 0 0 0 0 0 0 0 -0 -0
0 0 0 0 0 0 0 0 0 0 0 0 0 0 0 0 0 0 0 0 0 0 0 0 0 0 0 0 0 0 0 0 0 0 0 0 0 0 0 0 -0 -0 -0
0 0 0 0 0 0 0 0 0 0 0 0 0 0 0 0 0 0 0 0 0 0 0 0 0 0 0 0 0 0 0 0 0 0 0 0 0 0 0 -0 -0 -0 -0
0 0 0 0 0 0 0 0 0 0 0 0 0 0 0 0 0 0 0 0 0 0 0 0 0 0 0 0 0 0 0 0 0 0 0 0 0 0 -0 -0 -0 -0 -0
0 0 0 0 0 0 0 0 0 0 0 0 0 0 0 0 0 0 0 0 0 0 0 0 0 0 0 0 0 0 0 0 0 0 0 0 0 -0 -0 -0 -0 -0 -0
0 0 0 0 0 0 0 0 0 0 0 0 0 0 0 0 0 0 0 0 0 0 0 0 0 0 0 0 0 0 0 0 0 0 0 0 -0 -0 -0 -0 -0 -0 -0
0 0 0 0 0 0 0 0 0 0 0 0 0 0 0 0 0 0 0 0 0 0 0 0 0 0 0 0 0 0 0 0 0 -0 -0 -0 -0 -0 -0 -0 -0 -0 0
Wind_Speed_500mb
45 41 37 33 27 20 14 13 14 20 26 28 28 29 31 33 34 35 37 37 38 37 36 35 34 35 36 36 36 36 39 42 53 68 67 71 72 73 77 78 82 85 90
46 42 41 37 32 27 22 19 18 21 28 30 30 30 33 35 37 39 40 40 41 41 40 39 38 39 38 39 41 42 46 46 54 70 73 73 74 76 82 86 87 89 95
47 44 42 40 37 33 28 25 25 25 28 32 31 31 34 36 39 41 43 44 44 44 44 43 42 43 43 44 45 48 50 51 55 67 77 75 75 80 86 89 92 96 98
47 45 41 39 38 36 34 33 31 32 33 32 32 33 35 38 42 43 45 47 48 49 48 47 46 47 47 49 52 52 52 55 58 65 73 77 78 82 86 95 101 99 106
47 45 41 39 38 38 38 39 37 37 37 34 34 35 38 41 43 46 48 51 54 54 53 52 50 51 52 53 55 54 55 57 60 65 72 76 81 84 88 88 97 107 111
47 44 42 43 42 41 42 41 40 40 40 39 38 38 41 44 47 51 54 56 58 60 60 58 56 55 55 57 57 57 56 55 60 62 67 74 78 80 82 82 94 105 105
39 41 44 44 43 43 41 42 42 42 42 43 44 47 49 51 53 56 58 62 63 64 64 63 62 59 60 62 62 62 61 56 54 54 61 69 75 77 74 80 90 92 100
38 38 40 41 42 42 42 43 44 46 47 49 52 55 59 59 59 62 63 68 69 69 68 67 67 64 62 65 67 68 67 61 55 56 58 66 71 68 66 78 81 87 99
36 36 37 37 38 40 43 45 46 50 53 57 58 59 60 61 61 64 67 71 73 74 72 70 69 69 63 64 67 70 70 66 57 55 51 62 62 64 68 75 77 82 101
27 27 29 31 35 39 42 46 50 54 59 60 63 63 65 69 66 68 66 71 76 77 75 72 69 70 68 67 60 62 67 68 63 63 70 74 74 68 65 66 69 76 84
22 25 29 33 36 41 45 49 54 59 64 66 69 70 71 72 71 68 64 68 74 75 74 73 70 67 66 59 49 57 68 64 61 69 81 82 76 69 68 67 67 70 79
26 30 35 39 43 47 52 55 58 60 63 66 68 70 69 67 65 63 58 59 62 69 75 73 71 68 68 57 55 60 57 57 70 78 83 79 74 72 72 72 71 74 77
33 37 41 44 47 50 53 54 56 56 57 59 60 62 63 57 56 54 51 50 52 57 65 71 71 67 58 62 63 62 64 77 80 78 82 77 72 70 73 75 76 78 84
41 43 45 47 47 47 47 48 49 49 49 50 52 53 55 55 54 53 56 56 54 57 61 66 67 67 68 68 64 63 65 69 74 74 71 73 72 71 74 74 80 83 92
42 44 45 46 47 48 46 46 46 45 44 46 49 53 58 64 61 54 53 58 64 69 70 70 67 65 66 69 71 66 68 70 66 68 70 72 72 73 75 75 76 81 88
39 41 43 45 47 50 54 57 50 54 55 54 54 49 56 54 56 56 57 59 63 64 66 73 81 84 86 80 76 75 70 67 71 69 72 70 69 73 76 76 75 77 86
41 43 46 49 51 53 56 60 69 64 58 59 58 59 55 58 56 59 59 60 65 67 75 83 85 82 74 77 77 70 72 74 72 76 68 66 66 69 72 75 74 76 82
45 46 48 49 51 52 54 57 60 64 71 72 63 62 58 53 55 55 56 58 69 72 74 80 81 84 83 71 66 68 77 79 76 70 63 61 62 64 70 71 71 74 79
44 45 46 48 49 51 53 54 56 60 64 69 71 67 64 63 63 61 54 54 60 63 61 64 63 62 61 65 72 73 74 79 74 67 61 56 58 60 65 65 68 70 75
41 43 47 51 53 54 55 57 60 62 65 67 70 70 69 67 67 68 67 67 66 67 66 63 58 60 72 76 78 81 82 72 64 61 54 52 55 58 60 63 64 69 73
47 49 51 53 55 56 58 60 61 62 66 68 69 65 57 56 67 69 69 64 59 58 55 56 61 59 52 49 50 53 55 57 57 53 49 50 55 57 54 57 61 64 69
53 56 59 60 61 61 61 62 63 65 67 70 72 70 61 61 63 63 63 60 58 56 53 53 52 49 59 65 59 55 54 54 50 46 46 52 54 53 52 56 58 61 64
62 65 67 67 66 65 64 63 64 64 67 68 69 70 68 66 64 62 62 58 57 56 53 51 54 56 58 56 50 49 51 48 43 41 47 52 52 51 51 54 55 58 60
72 74 74 73 70 67 65 66 67 67 68 69 69 68 67 65 63 61 59 57 55 53 52 50 50 50 47 45 44 44 45 41 39 40 45 49 50 49 49 51 51 52 57
77 75 72 69 67 65 66 66 66 66 66 66 67 65 63 61 60 59 58 55 54 54 52 48 46 43 41 40 40 39 40 40 41 40 43 46 49 48 47 49 48 51 54
74 70 67 64 64 64 64 65 64 63 64 64 63 61 60 59 58 58 58 56 55 53 50 46 42 40 40 39 37 37 38 39 41 40 43 46 47 45 44 45 44 49 53
Wind_Direction_500mb
224 223 224 228 233 242 257 283 314 330 333 331 325 322 325 328 329 330 331 331 331 331 329 326 326 323 320 319 316 314 315 314 306 314 320 325 328 329 330 331 332 332 333
227 225 228 231 238 246 257 273 294 318 326 324 318 315 317 320 322 322 322 322 323 323 322 319 319 317 315 314 311 313 313 314 310 312 319 324 326 328 328 330 331 332 332
225 226 229 234 243 251 258 269 286 302 313 316 311 309 311 313 314 314 314 314 314 315 315 313 313 312 312 310 311 310 311 311 313 312 316 321 324 328 328 329 330 332 332
226 230 235 241 247 254 258 266 276 289 303 305 303 304 306 307 308 309 309 308 307 308 308 308 307 308 308 309 309 309 309 311 312 312 314 318 323 329 330 331 329 331 331
227 231 239 246 253 256 256 261 271 283 294 293 294 299 301 302 304 303 304 304 302 302 302 303 303 304 305 306 306 306 308 309 310 312 314 316 322 328 331 330 329 331 329
230 235 243 250 255 258 255 258 268 279 286 287 291 295 297 301 302 300 299 299 298 297 298 299 299 299 301 301 303 302 302 303 307 307 310 311 319 324 326 329 328 329 327
236 242 247 252 254 254 251 257 267 277 280 282 286 290 295 298 299 298 296 293 294 294 295 295 296 297 298 299 299 298 297 298 297 299 291 302 312 322 325 321 321 322 321
240 241 241 243 244 246 251 259 268 272 274 278 282 288 292 295 297 296 292 288 288 290 291 292 293 296 296 297 296 294 294 294 295 300 298 304 311 318 311 310 315 318 320
230 231 233 237 242 249 255 261 267 272 277 281 284 287 290 294 296 294 290 286 284 287 288 289 291 293 296 294 293 292 292 291 298 299 287 295 300 307 312 313 320 322 324
225 232 239 246 252 257 262 267 272 277 280 283 286 290 292 294 297 294 289 284 282 284 286 287 288 292 294 294 292 294 293 296 301 303 298 301 304 308 311 314 320 320 323
245 254 262 268 272 276 278 281 283 284 285 288 290 290 290 291 291 289 285 281 280 282 283 285 288 291 292 288 280 280 284 297 298 288 291 297 303 308 311 315 319 320 319
270 276 281 285 287 288 289 289 288 290 291 293 294 294 294 294 293 291 287 281 279 280 282 285 288 289 288 281 277 278 283 283 274 280 293 298 304 308 312 314 318 318 317
289 290 292 293 294 295 295 296 298 299 299 299 298 299 299 300 300 301 299 294 287 280 281 285 287 287 281 278 274 272 271 273 280 290 296 298 304 308 310 313 315 319 318
300 301 301 301 302 302 302 303 302 303 302 302 302 302 302 302 303 307 305 301 295 286 282 281 281 281 280 279 278 277 278 282 287 291 297 300 304 307 309 314 316 320 318
308 309 309 308 308 306 305 307 306 305 306 308 306 307 306 303 305 308 303 300 299 300 303 300 294 287 285 282 279 278 283 284 289 300 299 302 304 306 308 313 316 319 318
313 312 312 312 311 311 310 306 303 304 303 301 299 298 295 293 296 295 292 288 287 287 284 279 281 284 284 284 282 281 283 284 292 296 300 300 302 305 307 310 315 318 317
316 316 314 314 313 313 312 311 310 303 305 305 304 303 301 299 301 300 298 294 287 283 278 278 277 276 277 275 274 273 278 285 290 295 295 297 300 303 306 309 314 316 318
319 320 319 318 317 316 314 313 312 312 311 310 312 313 313 309 306 305 303 299 285 281 277 275 276 274 274 275 276 276 281 286 291 290 290 294 298 301 304 307 312 316 319
321 322 321 321 320 319 317 316 314 313 312 311 312 312 315 312 309 307 305 298 298 295 293 287 280 279 280 273 273 275 279 286 289 286 285 287 296 298 300 307 311 314 318
325 326 324 323 323 321 317 317 316 314 312 312 313 316 318 316 316 314 310 307 305 302 300 298 294 281 271 272 277 280 283 283 283 283 284 289 296 298 303 307 310 314 318
327 327 324 322 322 321 319 316 313 312 311 311 311 314 315 308 301 306 307 306 305 301 297 290 296 296 294 291 289 287 284 284 285 285 286 293 294 299 304 306 309 314 318
322 321 322 322 320 318 316 315 314 312 312 312 313 312 313 310 311 311 312 310 308 304 298 295 282 287 288 290 291 286 282 283 286 286 292 293 296 300 306 306 310 314 320
317 316 315 314 314 314 313 312 311 310 309 309 311 312 314 314 314 314 313 311 309 307 304 297 289 285 283 286 285 280 278 280 283 289 292 294 299 304 306 307 311 316 321
312 310 309 308 307 306 309 311 311 310 309 308 309 310 310 311 311 312 313 313 312 309 307 302 296 292 291 288 282 279 276 276 281 285 290 295 299 303 306 307 311 317 321
309 307 305 303 303 305 306 307 306 306 306 307 308 309 309 310 310 311 313 313 312 311 308 304 300 297 292 287 282 280 277 279 282 286 290 296 300 304 307 306 313 317 323
307 307 305 302 300 301 303 305 305 305 306 309 309 309 310 311 311 311 312 311 311 309 307 305 301 295 291 289 286 281 281 282 282 285 291 294 298 302 302 305 314 320 324
Wind_Speed_850mb
45 41 37 33 27 20 14 13 14 20 26 28 28 29 31 33 34 35 37 37 38 37 36 35 34 35 36 36 36 36 39 42 53 68 67 71 72 73 77 78 82 85 90
46 42 41 37 32 27 22 19 18 21 28 30 30 30 33 35 37 39 40 40 41 41 40 39 38 39 38 39 41 42 46 46 54 70 73 73 74 76 82 86 87 89 95
47 44 42 40 37 33 28 25 25 25 28 32 31 31 34 36 39 41 43 44 44 44 44 43 42 43 43 44 45 48 50 51 55 67 77 75 75 80 86 89 92 96 98
47 45 41 39 38 36 34 33 31 32 33 32 32 33 35 38 42 43 45 47 48 49 48 47 46 47 47 49 52 52 52 55 58 65 73 77 78 82 86 95 101 99 106
47 45 41 39 38 38 38 39 37 37 37 34 34 35 38 41 43 46 48 51 54 54 53 52 50 51 52 53 55 54 55 57 60 65 72 76 81 84 88 88 97 107 111
47 44 42 43 42 41 42 41 40 40 40 39 38 38 41 44 47 51 54 56 58 60 60 58 56 55 55 57 57 57 56 55 60 62 67 74 78 80 82 82 94 105 105
39 41 44 44 43 43 41 42 42 42 42 43 44 47 49 51 53 56 58 62 63 64 64 63 62 59 60 62 62 62 61 56 54 54 61 69 75 77 74 80 90 92 100
38 38 40 41 42 42 42 43 44 46 47 49 52 55 59 59 59 62 63 68 69 69 68 67 67 64 62 65 67 68 67 61 55 56 58 66 71 68 66 78 81 87 99
36 36 37 37 38 40 43 45 46 50 53 57 58 59 60 61 61 64 67 71 73 74 72 70 69 69 63 64 67 70 70 66 57 55 51 62 62 64 68 75 77 82 101
27 27 29 31 35 39 42 46 50 54 59 60 63 63 65 69 66 68 66 71 76 77 75 72 69 70 68 67 60 62 67 68 63 63 70 74 74 68 65 66 69 76 84
22 25 29 33 36 41 45 49 54 59 64 66 69 70 71 72 71 68 64 68 74 75 74 73 70 67 66 59 49 57 68 64 61 69 81 82 76 69 68 67 67 70 79
26 30 35 39 43 47 52 55 58 60 63 66 68 70 69 67 65 63 58 59 62 69 75 73 71 68 68 57 55 60 57 57 70 78 83 79 74 72 72 72 71 74 77
33 37 41 44 47 50 53 54 56 56 57 59 60 62 63 57 56 54 51 50 52 57 65 71 71 67 58 62 63 62 64 77 80 78 82 77 72 70 73 75 76 78 84
41 43 45 47 47 47 47 48 49 49 49 50 52 53 55 55 54 53 56 56 54 57 61 66 67 67 68 68 64 63 65 69 74 74 71 73 72 71 74 74 80 83 92
42 44 45 46 47 48 46 46 46 45 44 46 49 53 58 64 61 54 53 58 64 69 70 70 67 65 66 69 71 66 68 70 66 68 70 72 72 73 75 75 76 81 88
39 41 43 45 47 50 54 57 50 54 55 54 54 49 56 54 56 56 57 59 63 64 66 73 81 84 86 80 76 75 70 67 71 69 72 70 69 73 76 76 75 77 86
41 43 46 49 51 53 56 60 69 64 58 59 58 59 55 58 56 59 59 60 65 67 75 83 85 82 74 77 77 70 72 74 72 76 68 66 66 69 72 75 74 76 82
45 46 48 49 51 52 54 57 60 64 71 72 63 62 58 53 55 55 56 58 69 72 74 80 81 84 83 71 66 68 77 79 76 70 63 61 62 64 70 71 71 74 79
44 45 46 48 49 51 53 54 56 60 64 69 71 67 64 63 63 61 54 54 60 63 61 64 63 62 61 65 72 73 74 79 74 67 61 56 58 60 65 65 68 70 75
41 43 47 51 53 54 55 57 60 62 65 67 70 70 69 67 67 68 67 67 66 67 66 63 58 60 72 76 78 81 82 72 64 61 54 52 55 58 60 63 64 69 73
47 49 51 53 55 56 58 60 61 62 66 68 69 65 57 56 67 69 69 64 59 58 55 56 61 59 52 49 50 53 55 57 57 53 49 50 55 57 54 57 61 64 69
53 56 59 60 61 61 61 62 63 65 67 70 72 70 61 61 63 63 63 60 58 56 53 53 52 49 59 65 59 55 54 54 50 46 46 52 54 53 52 56 58 61 64
62 65 67 67 66 65 64 63 64 64 67 68 69 70 68 66 64 62 62 58 57 56 53 51 54 56 58 56 50 49 51 48 43 41 47 52 52 51 51 54 55 58 60
72 74 74 73 70 67 65 66 67 67 68 69 69 68 67 65 63 61 59 57 55 53 52 50 50 50 47 45 44 44 45 41 39 40 45 49 50 49 49 51 51 52 57
77 75 72 69 67 65 66 66 66 66 66 66 67 65 63 61 60 59 58 55 54 54 52 48 46 43 41 40 40 39 40 40 41 40 43 46 49 48 47 49 48 51 54
74 70 67 64 64 64 64 65 64 63 64 64 63 61 60 59 58 58 58 56 55 53 50 46 42 40 40 39 37 37 38 39 41 40 43 46 47 45 44 45 44 49 53
Wind_Direction_850mb
224 223 224 228 233 242 257 283 314 330 333 331 325 322 325 328 329 330 331 331 331 331 329 326 326 323 320 319 316 314 315 314 306 314 320 325 328 329 330 331 332 332 333
227 225 228 231 238 246 257 273 294 318 326 324 318 315 317 320 322 322 322 322 323 323 322 319 319 317 315 314 311 313 313 314 310 312 319 324 326 328 328 330 331 332 332
225 226 229 234 243 251 258 269 286 302 313 316 311 309 311 313 314 314 314 314 314 315 315 313 313 312 312 310 311 310 311 311 313 312 316 321 324 328 328 329 330 332 332
226 230 235 241 247 254 258 266 276 289 303 305 303 304 306 307 308 309 309 308 307 308 308 308 307 308 308 309 309 309 309 311 312 312 314 318 323 329 330 331 329 331 331
227 231 239 246 253 256 256 261 271 283 294 293 294 299 301 302 304 303 304 304 302 302 302 303 303 304 305 306 306 306 308 309 310 312 314 316 322 328 331 330 329 331 329
230 235 243 250 255 258 255 258 268 279 286 287 291 295 297 301 302 300 299 299 298 297 298 299 299 299 301 301 303 302 302 303 307 307 310 311 319 324 326 329 328 329 327
236 242 247 252 254 254 251 257 267 277 280 282 286 290 295 298 299 298 296 293 294 294 295 295 296 297 298 299 299 298 297 298 297 299 291 302 312 322 325 321 321 322 321
240 241 241 243 244 246 251 259 268 272 274 278 282 288 292 295 297 296 292 288 288 290 291 292 293 296 296 297 296 294 294 294 295 300 298 304 311 318 311 310 315 318 320
230 231 233 237 242 249 255 261 267 272 277 281 284 287 290 294 296 294 290 286 284 287 288 289 291 293 296 294 293 292 292 291 298 299 287 295 300 307 312 313 320 322 324
225 232 239 246 252 257 262 267 272 277 280 283 286 290 292 294 297 294 289 284 282 284 286 287 288 292 294 294 292 294 293 296 301 303 298 301 304 308 311 314 320 320 323
245 254 262 268 272 276 278 281 283 284 285 288 290 290 290 291 291 289 285 281 280 282 283 285 288 291 292 288 280 280 284 297 298 288 291 297 303 308 311 315 319 320 319
270 276 281 285 287 288 289 289 288 290 291 293 294 294 294 294 293 291 287 281 279 280 282 285 288 289 288 281 277 278 283 283 274 280 293 298 304 308 312 314 318 318 317
289 290 292 293 294 295 295 296 298 299 299 299 298 299 299 300 300 301 299 294 287 280 281 285 287 287 281 278 274 272 271 273 280 290 296 298 304 308 310 313 315 319 318
300 301 301 301 302 302 302 303 302 303 302 302 302 302 302 302 303 307 305 301 295 286 282 281 281 281 280 279 278 277 278 282 287 291 297 300 304 307 309 314 316 320 318
308 309 309 308 308 306 305 307 306 305 306 308 306 307 306 303 305 308 303 300 299 300 303 300 294 287 285 282 279 278 283 284 289 300 299 302 304 306 308 313 316 319 318
313 312 312 312 311 311 310 306 303 304 303 301 299 298 295 293 296 295 292 288 287 287 284 279 281 284 284 284 282 281 283 284 292 296 300 300 302 305 307 310 315 318 317
316 316 314 314 313 313 312 311 310 303 305 305 304 303 301 299 301 300 298 294 287 283 278 278 277 276 277 275 274 273 278 285 290 295 295 297 300 303 306 309 314 316 318
319 320 319 318 317 316 314 313 312 312 311 310 312 313 313 309 306 305 303 299 285 281 277 275 276 274 274 275 276 276 281 286 291 290 290 294 298 301 304 307 312 316 319
321 322 321 321 320 319 317 316 314 313 312 311 312 312 315 312 309 307 305 298 298 295 293 287 280 279 280 273 273 275 279 286 289 286 285 287 296 298 300 307 311 314 318
325 326 324 323 323 321 317 317 316 314 312 312 313 316 318 316 316 314 310 307 305 302 300 298 294 281 271 272 277 280 283 283 283 283 284 289 296 298 303 307 310 314 318
327 327 324 322 322 321 319 316 313 312 311 311 311 314 315 308 301 306 307 306 305 301 297 290 296 296 294 291 289 287 284 284 285 285 286 293 294 299 304 306 309 314 318
322 321 322 322 320 318 316 315 314 312 312 312 313 312 313 310 311 311 312 310 308 304 298 295 282 287 288 290 291 286 282 283 286 286 292 293 296 300 306 306 310 314 320
317 316 315 314 314 314 313 312 311 310 309 309 311 312 314 314 314 314 313 311 309 307 304 297 289 285 283 286 285 280 278 280 283 289 292 294 299 304 306 307 311 316 321
312 310 309 308 307 306 309 311 311 310 309 308 309 310 310 311 311 312 313 313 312 309 307 302 296 292 291 288 282 279 276 276 281 285 290 295 299 303 306 307 311 317 321
309 307 305 303 303 305 306 307 306 306 306 307 308 309 309 310 310 311 313 313 312 311 308 304 300 297 292 287 282 280 277 279 282 286 290 296 300 304 307 306 313 317 323
307 307 305 302 300 301 303 305 305 305 306 309 309 309 310 311 311 311 312 311 311 309 307 305 301 295 291 289 286 281 281 282 282 285 291 294 298 302 302 305 314 320 324